Regional Weather Roundup
Issued by NWS Midland/Odessa, TX

Home | Current Version | Previous Version | Text Only | Print | Product List | Glossary On
Versions: 1 2 3 4 5 6 7 8 9 10 11 12 13 14 15 16 17 18 19 20 21 22 23 24 25 26 27 28 29 30 31 32 33 34 35 36 37 38 39 40 41 42 43 44 45 46 47 48 49 50
861
ASUS44 KMAF 200401
RWRMAF
MIDLAND AREA WEATHER ROUNDUP
NATIONAL WEATHER SERVICE MIDLAND TX
1000 PM CST MON FEB 19 2018

...IN SOUTHWEST TEXAS AND SOUTHEAST NEW MEXICO...

CITY           SKY/WX    TMP DP  RH WIND       PRES   REMARKS
ALPINE         MOCLDY    66  34  30 SW17G30   29.89S
ANDREWS        FAIR      64  43  47 S14G22    29.72R
ARTESIA        CLEAR     61  39  44 SW15      29.67S
BIG SPRING     MOCLDY    64  48  54 S15       29.75S
CARLSBAD       CLEAR     53  47  79 S10       29.67R
DRYDEN           N/A     71  59  65 SE15G21   29.76S
FORT STOCKTON  NOT AVBL
GUAD PASS      NOT AVBL
HOBBS          PTCLDY    52  45  76 SW10      29.70S
LAMESA         MOCLDY    63  46  55 S21G30    29.72S
MARFA          CLOUDY    62  34  35 S17G23    29.86S
MIDLAND AIRPK    N/A     71  42  35 S17G24    29.75R
MIDLAND INTL   PTCLDY    70  42  36 S15G29    29.74R
ODESSA         CLOUDY    68  42  38 S21G30    29.74R
PECOS          PTCLDY    65  42  42 S9        29.70S
PRESIDIO       FAIR      73  39  29 SW16G26   29.82R
SEMINOLE       CLEAR     62  42  47 S15G22    29.71S
SNYDER         CLEAR     64  49  57 S9        29.74R
WINK           CLEAR     64  43  46 SE16      29.69S
$$
...OTHER STATIONS IN TEXAS...

CITY           SKY/WX    TMP DP  RH WIND       PRES   REMARKS
ABILENE        CLOUDY    70  59  68 S22G32    29.73S
AMARILLO       CLEAR     55  35  47 S16       29.64R
AUSTIN         CLOUDY    73  69  87 S18G29    29.85S
BROWNSVILLE    CLOUDY    74  71  91 SE15      29.90S
CORPUS CHRISTI CLOUDY    73  71  93 SE28G35   29.88R
DALLAS FTW     CLOUDY    73  63  70 S17G25    29.81R
DEL RIO        CLOUDY    70  61  73 NW6       29.76R
EL PASO        PTCLDY    59  39  47 SW18      29.78R
HOUSTON INT    CLOUDY    73  69  87 S15G28    29.97R
LUBBOCK        PTCLDY    62  43  49 S18       29.69R
SAN ANGELO     CLEAR     70  57  63 S13       29.76S
SAN ANTONIO    CLOUDY    71  66  84 SE15      29.86R
WACO           CLOUDY    69  65  86 S18       29.84F
WICHITA FALLS  FRZ DRZL  30  29  96 NE10      29.78F FOG     WCI  21
$$
...OTHER LOCATIONS IN NEW MEXICO...

CITY           SKY/WX    TMP DP  RH WIND       PRES   REMARKS
ALAMOGORDO     PTCLDY    54  34  47 S12       29.77R
ALBUQUERQUE    MOCLDY    52  27  38 SW21G30   29.61R
CANNON AFB     CLEAR     57  37  46 S17G26    29.66R
CLOVIS         NOT AVBL
HOLLOMAN AFB   NOT AVBL
ROSWELL        CLEAR     60  38  43 SW15      29.63F
RUIDOSO        CLEAR     45  32  61 SW52G61   29.60S WCI  32
SANTA FE       CLOUDY    49  25  39 SW29G44   29.58R
TRUTH OR CONSE CLEAR     53  35  50 S23G37    29.67R
TUCUMCARI      CLEAR     53  28  38 SW15      29.57R
$$




USA.gov is the U.S. government's official web portal to all federal, state and local government web resources and services.